Regional Weather Roundup
Issued by NWS

Home | Current Version | Previous Version | Text Only | Print | Product List | Glossary On
Versions: 1 2 3 4 5 6 7 8 9 10 11 12 13 14 15 16 17 18 19 20 21 22 23 24 25 26 27
000
ASUS46 KPQR 231010
RWROR

OREGON REGIONAL WEATHER ROUNDUP
NATIONAL WEATHER SERVICE PORTLAND OR
300 AM PDT SUN JUL 23 2017

NOTE: "FAIR" INDICATES FEW OR NO CLOUDS BELOW 12,000 FEET WITH
NO SIGNIFICANT WEATHER AND/OR OBSTRUCTIONS TO VISIBILITY.

ORZ001>013-231100-
NORTHWEST OREGON


CITY           SKY/WX    TMP DP  RH WIND       PRES   REMARKS
ASTORIA        CLOUDY    60  56  86 N15       30.10S
NEWPORT        CLOUDY    59  55  88 N13       30.09F
PORTLAND       CLEAR     67  62  84 NW9       30.03S
VANCOUVER WA   CLEAR     68  63  84 NW8       30.02S
SCAPPOOSE      CLEAR     67  61  81 NW8       30.02S
HILLSBORO      CLEAR     65  61  87 NW9       30.03S
AURORA         CLEAR     69  60  73 N7        30.03F
MCMINNVILLE    CLEAR     64  49  57 W6        30.03F
SALEM          CLEAR     67  60  78 N7        30.01F
CORVALLIS      CLEAR     64  61  88 NW6       30.02S
EUGENE         CLEAR     64  61  90 CALM      30.01S
$$

ORZ021-028-231100-
SOUTHWEST OREGON


CITY           SKY/WX    TMP DP  RH WIND       PRES   REMARKS
NORTH BEND     CLOUDY    60  58  92 N18G25    30.05F
BROOKINGS      PTCLDY    58  56  93 CALM      29.90F
ROSEBURG       CLEAR     72  61  68 CALM      29.99S
SEXTON SUMMIT  CLEAR     62  56  80 N12G21    30.09F
GRANTS PASS    FAIR      70  57  64 CALM      30.01S
MEDFORD        CLEAR     72  54  53 CALM      29.97F
$$

ORZ014>016-041-231100-
COLUMBIA GORGE


CITY           SKY/WX    TMP DP  RH WIND       PRES   REMARKS
TROUTDALE      CLEAR     68  62  81 W6        30.02S
HOOD RIVER     CLEAR     66  59  77 CALM      29.99S
THE DALLES     CLEAR     76  64  66 NW13      29.94S
$$

ORZ029>031-041-044-049-050-061>064-502-503-505>511-231100-
EASTERN OREGON


CITY           SKY/WX    TMP DP  RH WIND       PRES   REMARKS
MADRAS         CLEAR     59  52  77 CALM      30.07F
REDMOND        CLEAR     62  49  62 S8        30.09S
BEND           CLEAR     64  52  63 S5        30.12S
PRINEVILLE     CLEAR     59  46  63 S6        30.10S
KLAMATH FALLS  CLEAR     68  50  52 N10       30.07F HAZE
LAKEVIEW       CLEAR     68  39  34 N17       30.13F
HERMISTON      CLEAR     66  49  54 SE6       29.94S
PENDLETON      CLEAR     69  46  43 SE12      29.98F
JOHN DAY       CLEAR     65  43  44 CALM      30.12S
MEACHAM        CLEAR     48  41  76 CALM      30.12F
LA GRANDE      CLEAR     63  41  45 NW8       30.06S
BAKER CITY     CLEAR     57  46  66 S6        30.09F
BURNS          CLEAR     59  40  49 W7        30.12F
ROME             N/A     58  26  29 E3        30.09S
ONTARIO        CLEAR     74  44  34 CALM      29.98F
$$




USA.gov is the U.S. government's official web portal to all federal, state and local government web resources and services.